Tiempo cada hora Cedynia

Hoy, 18 Abril, Domingo

Tiempo Temperatura Precipitaciones Viento Presión Humedad
00:00 +5°C° 0 mm 2 mps 764 mmHg 95%
01:00 +5°C° 0 mm 2 mps 764 mmHg 95%
02:00 +5°C° 0 mm 2 mps 764 mmHg 95%
03:00 +5°C° 0 mm 2 mps 764 mmHg 95%
04:00 +5°C° 0 mm 2 mps 764 mmHg 95%
05:00 +6°C° 0.1 mm 2 mps 764 mmHg 94%
06:00 +7°C° 0.1 mm 2 mps 764 mmHg 92%
07:00 +7°C° 0.1 mm 3 mps 764 mmHg 90%
08:00 +9°C° 0.1 mm 3 mps 764 mmHg 87%
09:00 +10°C° 0.1 mm 3 mps 763 mmHg 83%
10:00 +11°C° 0.1 mm 4 mps 763 mmHg 80%
11:00 +11°C° 0.3 mm 4 mps 763 mmHg 76%
12:00 +12°C° 0.3 mm 3 mps 763 mmHg 73%
13:00 +12°C° 0.3 mm 3 mps 763 mmHg 70%
14:00 +12°C° 0.5 mm 3 mps 763 mmHg 70%
15:00 +12°C° 0.5 mm 3 mps 763 mmHg 71%
16:00 +12°C° 0.5 mm 3 mps 762 mmHg 71%
17:00 +11°C° 0.3 mm 3 mps 763 mmHg 76%
18:00 +10°C° 0.3 mm 3 mps 763 mmHg 81%
19:00 +9°C° 0.3 mm 3 mps 763 mmHg 86%
20:00 +8°C° 0 mm 2 mps 763 mmHg 88%
21:00 +8°C° 0 mm 2 mps 763 mmHg 90%
22:00 +7°C° 0 mm 2 mps 764 mmHg 92%
23:00 +7°C° 0 mm 2 mps 764 mmHg 92%

Mañana, 19 Abril, Lunes

Tiempo Temperatura Precipitaciones Viento Presión Humedad
00:00 +7°C° 0 mm 2 mps 764 mmHg 93%
01:00 +6°C° 0 mm 2 mps 764 mmHg 93%
02:00 +6°C° 0 mm 2 mps 764 mmHg 93%
03:00 +6°C° 0 mm 2 mps 764 mmHg 93%
04:00 +6°C° 0 mm 2 mps 764 mmHg 93%
05:00 +7°C° 0 mm 2 mps 764 mmHg 91%
06:00 +7°C° 0 mm 2 mps 764 mmHg 89%
07:00 +8°C° 0 mm 2 mps 764 mmHg 87%
08:00 +9°C° 0 mm 2 mps 764 mmHg 84%
09:00 +10°C° 0 mm 2 mps 764 mmHg 80%
10:00 +12°C° 0 mm 2 mps 764 mmHg 77%
11:00 +12°C° 0 mm 2 mps 764 mmHg 75%
12:00 +13°C° 0 mm 2 mps 764 mmHg 73%
13:00 +13°C° 0 mm 2 mps 763 mmHg 71%
14:00 +14°C° 0.1 mm 2 mps 763 mmHg 69%
15:00 +14°C° 0.1 mm 3 mps 763 mmHg 67%
16:00 +16°C° 0.1 mm 3 mps 762 mmHg 65%
17:00 +13°C° 0.4 mm 3 mps 762 mmHg 73%
18:00 +11°C° 0.4 mm 3 mps 762 mmHg 81%
19:00 +10°C° 0.4 mm 3 mps 762 mmHg 88%
20:00 +9°C° 0.2 mm 2 mps 762 mmHg 90%
21:00 +9°C° 0.2 mm 2 mps 762 mmHg 92%
22:00 +8°C° 0.2 mm 2 mps 762 mmHg 93%
23:00 +8°C° 0 mm 2 mps 762 mmHg 92%

Pasado mañana, 20 Abril, Martes

Tiempo Temperatura Precipitaciones Viento Presión Humedad
00:00 +9°C° 0 mm 1 mps 761 mmHg 92%
01:00 +8°C° 0 mm 1 mps 761 mmHg 91%
02:00 +8°C° 0 mm 1 mps 761 mmHg 91%
03:00 +8°C° 0 mm 1 mps 761 mmHg 90%
04:00 +8°C° 0 mm 1 mps 761 mmHg 89%
05:00 +9°C° 0 mm 1 mps 761 mmHg 88%
06:00 +9°C° 0 mm 1 mps 761 mmHg 87%
07:00 +10°C° 0 mm 1 mps 761 mmHg 86%
08:00 +11°C° 0.1 mm 1 mps 761 mmHg 82%
09:00 +12°C° 0.1 mm 1 mps 761 mmHg 77%
10:00 +13°C° 0.1 mm 1 mps 760 mmHg 73%
11:00 +14°C° 0.4 mm 1 mps 760 mmHg 68%
12:00 +15°C° 0.4 mm 1 mps 760 mmHg 63%
13:00 +16°C° 0.4 mm 1 mps 760 mmHg 57%
14:00 +16°C° 0.4 mm 1 mps 759 mmHg 58%
15:00 +16°C° 0.4 mm 1 mps 759 mmHg 58%
16:00 +16°C° 0.4 mm 1 mps 759 mmHg 58%
17:00 +14°C° 0.5 mm 1 mps 758 mmHg 65%
18:00 +13°C° 0.5 mm 1 mps 758 mmHg 72%
19:00 +11°C° 0.5 mm 1 mps 758 mmHg 78%
20:00 +11°C° 0.1 mm 1 mps 758 mmHg 81%
21:00 +11°C° 0.1 mm 1 mps 758 mmHg 83%
22:00 +10°C° 0.1 mm 1 mps 758 mmHg 85%
23:00 +10°C° 0 mm 1 mps 758 mmHg 87%

21 Abril, Miércoles

Tiempo Temperatura Precipitaciones Viento Presión Humedad
00:00 +8°C° 0 mm 2 mps 758 mmHg 89%
01:00 +7°C° 0 mm 2 mps 758 mmHg 92%
02:00 +7°C° 0 mm 2 mps 757 mmHg 93%
03:00 +6°C° 0 mm 2 mps 757 mmHg 94%
04:00 +6°C° 0 mm 2 mps 757 mmHg 95%
05:00 +5°C° 0 mm 3 mps 757 mmHg 92%
06:00 +7°C° 0 mm 3 mps 757 mmHg 90%
07:00 +7°C° 0 mm 3 mps 757 mmHg 88%
08:00 +8°C° 0 mm 4 mps 758 mmHg 79%
09:00 +10°C° 0 mm 4 mps 758 mmHg 70%
10:00 +12°C° 0 mm 4 mps 758 mmHg 61%
11:00 +12°C° 0 mm 4 mps 757 mmHg 58%
12:00 +12°C° 0 mm 4 mps 757 mmHg 56%
13:00 +13°C° 0 mm 5 mps 757 mmHg 54%
14:00 +10°C° 0.5 mm 5 mps 757 mmHg 65%
15:00 +8°C° 0.5 mm 5 mps 757 mmHg 77%
16:00 +6°C° 0.5 mm 5 mps 758 mmHg 89%
17:00 +6°C° 0.2 mm 5 mps 758 mmHg 86%
18:00 +5°C° 0.2 mm 4 mps 758 mmHg 83%
19:00 +5°C° 0.2 mm 4 mps 758 mmHg 79%
20:00 +4°C° 0.1 mm 4 mps 758 mmHg 82%
21:00 +3°C° 0.1 mm 4 mps 759 mmHg 84%
22:00 +1°C° 0.1 mm 4 mps 759 mmHg 87%
23:00 +1°C° 0 mm 4 mps 759 mmHg 88%

22 Abril, Jueves

Tiempo Temperatura Precipitaciones Viento Presión Humedad
00:00 0°C° 0 mm 4 mps 759 mmHg 89%
01:00 0°C° 0 mm 4 mps 759 mmHg 90%
02:00 -1°C° 0 mm 4 mps 759 mmHg 90%
03:00 -1°C° 0 mm 4 mps 759 mmHg 90%
04:00 -1°C° 0 mm 4 mps 759 mmHg 90%
05:00 0°C° 0 mm 4 mps 759 mmHg 88%
06:00 0°C° 0 mm 5 mps 760 mmHg 86%
07:00 +1°C° 0 mm 5 mps 760 mmHg 84%
08:00 +1°C° 0.1 mm 5 mps 760 mmHg 86%
09:00 +1°C° 0.1 mm 4 mps 760 mmHg 88%
10:00 +1°C° 0.1 mm 4 mps 761 mmHg 90%
11:00 +3°C° 0.1 mm 3 mps 761 mmHg 89%
12:00 +3°C° 0.1 mm 3 mps 762 mmHg 89%
13:00 +4°C° 0.1 mm 2 mps 762 mmHg 89%
14:00 +5°C° 0 mm 2 mps 762 mmHg 84%
15:00 +5°C° 0 mm 2 mps 763 mmHg 79%
16:00 +7°C° 0 mm 1 mps 763 mmHg 74%
17:00 +6°C° 0 mm 2 mps 763 mmHg 77%
18:00 +5°C° 0 mm 2 mps 764 mmHg 80%
19:00 +4°C° 0 mm 2 mps 764 mmHg 83%
20:00 +4°C° 0 mm 2 mps 765 mmHg 86%
21:00 +3°C° 0 mm 2 mps 765 mmHg 88%
22:00 +3°C° 0 mm 2 mps 765 mmHg 91%
23:00 +3°C° 0 mm 2 mps 766 mmHg 90%

23 Abril, Viernes

Tiempo Temperatura Precipitaciones Viento Presión Humedad
00:00 +3°C° 0 mm 2 mps 766 mmHg 90%
01:00 +3°C° 0 mm 2 mps 766 mmHg 90%
02:00 +3°C° 0 mm 2 mps 766 mmHg 90%
03:00 +3°C° 0 mm 2 mps 767 mmHg 90%
04:00 +2°C° 0 mm 2 mps 767 mmHg 89%
05:00 +3°C° 0 mm 2 mps 767 mmHg 86%
06:00 +2°C° 0 mm 3 mps 768 mmHg 83%
07:00 +3°C° 0 mm 3 mps 768 mmHg 79%
08:00 +5°C° 0 mm 3 mps 768 mmHg 73%
09:00 +6°C° 0 mm 4 mps 768 mmHg 66%
10:00 +8°C° 0 mm 4 mps 769 mmHg 60%
11:00 +8°C° 0.2 mm 4 mps 769 mmHg 58%
12:00 +8°C° 0.2 mm 4 mps 768 mmHg 56%
13:00 +10°C° 0.2 mm 4 mps 768 mmHg 55%
14:00 +10°C° 0.3 mm 4 mps 769 mmHg 57%
15:00 +9°C° 0.3 mm 5 mps 769 mmHg 60%
16:00 +9°C° 0.3 mm 5 mps 769 mmHg 63%
17:00 +8°C° 0.1 mm 5 mps 769 mmHg 69%
18:00 +6°C° 0.1 mm 5 mps 770 mmHg 74%
19:00 +5°C° 0.1 mm 5 mps 770 mmHg 80%
20:00 +3°C° 0 mm 5 mps 770 mmHg 84%
21:00 +3°C° 0 mm 4 mps 770 mmHg 88%
22:00 +1°C° 0 mm 4 mps 770 mmHg 91%
23:00 +1°C° 0 mm 4 mps 770 mmHg 92%
Mostrar más

Necesitamos Su Consentimiento

Meteoprog y nuestros Proveedores de Servicios pueden almacenar y acceder a sus datos personales como cookies, identificadores de dispositivo u otras tecnologías similares de su dispositivo y procesar dichos datos para personalizar contenido y anuncios, además de ofrecer funciones de redes sociales y analizar el tráfico.

  • Almacenar y/o acceder a información en su dispositivo

    Se puede almacenar o acceder a cookies, identificadores de dispositivo u otra información de su dispositivo para los fines anteriormente indicados.

  • Anuncios y contenido personalizados, medición de anuncios y contenido, percepciones del público, y desarrollo de productos

    Los anuncios y el contenido pueden personalizarse en base a su perfil. Se pueden añadir más datos para personalizar mejor los anuncios y contenidos. Se puede medir el rendimiento de los anuncios y contenidos. Se puede obtener la percepción sobre el público que ha visto los anuncios y contenidos. Dichos datos pueden usarse para desarrollar o mejorar la experiencia del usuario, sistemas y software.

Al hacer clic en ‘Estoy De Acuerdo’ usted permitirá el uso de las cookies, identificadores de dispositivo, balizas web u otras tecnologías similares indicadas. Su configuración puede cambiarse desde el navegador de su dispositivo.

Para ciertos fines, los intereses legítimos pueden ser considerados por encima del consentimiento. Puede leer más sobre ello en nuestra Política de Privacidad y Cookies.